[Date Prev][Date Next][Thread Prev][Thread Next] - [Date Index][Thread Index][Author Index]
2 Line ISS Keps 8-9
- Subject: [sarex] 2 Line ISS Keps 8-9
- From: "Dave Larsen PhD" <doc@xxxxxxxxxxx>
- Date: Fri, 9 Aug 2002 05:51:08 -0700
ISS
1 25544U 98067A 02221.43634259 .00017446 00000-0 23857-3 0 286
2 25544 51.6372 145.6626 0018039 120.6251 26.1775 15.57353553212335
----
Via the sarex mailing list at AMSAT.ORG courtesy of AMSAT-NA.
To unsubscribe, send "unsubscribe sarex" to Majordomo@amsat.org
AMSAT Home